Powrót do katalogu

ONEWEB-0031

AktywnyŁącznośćPO
NORAD 45431·PAYLOAD·🇬🇧 United Kingdom

Wystrzelony Mar 21, 2020 z Baikonur Cosmodrome

Loading…

Następne Przeloty (najbliższe 24 godziny)

TLE

ŚwieżeSource: CelesTrak SupGP

Epoka: Sep 14, 2026, 16:56 UTC

1 45431C 20020H   26257.70572176  .00003688  00000+0  10418-1 0  2574
2 45431  87.8959   3.2728 0001677  98.3384   6.5884 13.11410208    16

Śledź ONEWEB-0031 w czasie rzeczywistym z AllMySat

Download on the App Store